Regional Weather Roundup
Issued by NWS

Home | Current Version | Previous Version | Text Only | Print | Product List | Glossary On
Versions: 1 2 3 4 5 6 7 8 9 10 11 12 13 14 15 16 17 18 19 20 21 22 23 24 25 26 27
000
ASUS45 KBOU 270407
RWRCO

WEATHER ROUNDUP FOR COLORADO
NATIONAL WEATHER SERVICE DENVER/BOULDER CO
1000 PM MDT FRI MAY 26 2017

NOTE: "FAIR" INDICATES FEW OR NO CLOUDS BELOW 12000 FEET WITH NO
SIGNIFICANT WEATHER AND/OR OBSTRUCTIONS TO VISIBILITY.

COZ001>005-013-030-031-270500-
...NORTHWEST COLORADO...

CITY           SKY/WX    TMP DP  RH WIND       PRES   REMARKS
CRAIG          FAIR      47  37  68 CALM      30.02S
HAYDEN         CLOUDY    46  36  66 SW5       30.03R
MEEKER         CLOUDY    52  38  58 NE9       30.00R
RABBIT EARS PA NOT AVBL
STEAMBOAT SPGS NOT AVBL
WALDEN         NOT AVBL
$$

COZ006>008-011-270500-
...WEST CENTRAL VALLEYS...

CITY           SKY/WX    TMP DP  RH WIND       PRES   REMARKS
GRAND JUNCTION FAIR      72  23  16 W13       29.82R
MONTROSE       FAIR      60  19  20 S10       29.92R
EAGLE          FAIR      64  16  15 SW12G25   29.93R
RIFLE          MOCLDY    63  36  36 W15       29.90R
DELTA          FAIR      72  13  10 SW6       29.85R
NUCLA          FAIR      63  10  13 SW7       29.95R
$$

COZ017>023-064>068-270500-
...SOUTHWEST COLORADO...

CITY           SKY/WX    TMP DP  RH WIND       PRES   REMARKS
DURANGO        FAIR      57   8  14 SW3       30.01R
CORTEZ         FAIR      59  22  24 S9        29.96R
PAGOSA SPRINGS FAIR      50   8  18 CALM      30.08R
TELLURIDE      FAIR      56   8  14 SW6       30.15R
WOLF CREEK PAS NOT AVBL
$$

COZ009-010-012-014-032>034-037-058>063-270500-
...CENTRAL COLORADO...

CITY           SKY/WX    TMP DP  RH WIND       PRES   REMARKS
ASPEN          FAIR      50  24  36 S10       30.00R
BUENA VISTA    FAIR      47  19  33 SW6       30.03R
COPPER MTN     NOT AVBL
BERTHOUD PASS  NOT AVBL
COTTONWOOD PAS NOT AVBL
GUNNISON       FAIR      55  18  23 CALM      30.03R
KREMMLING      NOT AVBL
LEADVILLE      FAIR      44  12  27 SW7       30.12R
SALIDA         FAIR      54  19  24 W9        30.08R
SUNLIGHT       NOT AVBL
WILKERSON PASS NOT AVBL
$$

COZ069>075-270500-
...SAN LUIS VALLEY/SANGRE DE CRISTO MOUNTAINS...

CITY           SKY/WX    TMP DP  RH WIND       PRES   REMARKS
ALAMOSA        FAIR      46  21  37 S6        30.05R
DEL NORTE      NOT AVBL
LA VETA PASS   NOT AVBL
SAGUACHE       NOT AVBL
$$

COZ035-036-038>040-270500-
...NORTHERN COLORADO FRONT RANGE...

CITY           SKY/WX    TMP DP  RH WIND       PRES   REMARKS
DENVER INTL AP MOCLDY    53  43  68 N28G39    29.93R
DMNS CITY PARK   N/A     54  42  64 N21G28    29.98R
AURORA         MOCLDY    54  44  70 N22G31    29.97R
FRONT RANGE AP NOT AVBL
ERIE MUNI ARPT NOT AVBL
BOULDER MUN AP NOT AVBL
CENTENNIAL     MOCLDY    57  48  72 N21       29.97R
BROOMFIELD     MOCLDY    54  45  71 N23G31    29.99R
FORT COLLINS   FAIR      52  46  80 N23G31    29.98R
LONGMONT       NOT AVBL
$$

COZ041-046-047-076>085-087-088-270500-
...PIKES PEAK/PALMER DIVIDE AND SOUTHERN FOOTHILLS...

CITY           SKY/WX    TMP DP  RH WIND       PRES   REMARKS
COLO. SPRINGS  FAIR      56  41  57 N8        29.92R
A. F. ACADEMY  FAIR      50  43  77 N10       29.94R
SCHRIEVER AFB  FAIR      55  41  58 N14G20    29.92R
CHEYENNE MTN   FAIR      58  34  39 NW10      29.91R
ELLICOTT       FAIR     N/A N/A N/A E13       29.89R
FALCON         FAIR      51  38  60 NW7       29.96R
FORT CARSON    FAIR      56  42  57 N6        29.89R
LIMON          FAIR      56  44  64 S10       29.85F
MONUMENT HILL  NOT AVBL
CANON CITY     NOT AVBL
WALSENBURG     FAIR      63  21  20 S7        29.92R
TRINIDAD       FAIR      59  23  25 SW10      29.91R
$$

COZ042>045-048>051-090-091-270500-
...NORTHEAST COLORADO...

CITY           SKY/WX    TMP DP  RH WIND       PRES   REMARKS
GREELEY ARPT   FAIR      53  45  74 N26G33    29.96R
AKRON          FAIR      54  47  77 N18       29.87R
BURLINGTON     TSTM      51  49  92 SE13G21   29.93F
WRAY           CLOUDY    55  50  82 SE28G38   29.84F
YUMA           NOT AVBL
STERLING       NOT AVBL
HOLYOKE        NOT AVBL
FORT MORGAN    FAIR      52  46  79 N24G37    29.88R
$$

COZ086-089-092>099-270500-
...SOUTHEAST COLORADO...

CITY           SKY/WX    TMP DP  RH WIND       PRES   REMARKS
PUEBLO         FAIR      63  44  50 N12       29.81R
LA JUNTA       FAIR      68  35  29 S9        29.78R
LAMAR          FAIR      69  50  50 SE20G29   29.75R
SPRINGFIELD      N/A     62  49  62 S13       29.85R
$$




USA.gov is the U.S. government's official web portal to all federal, state and local government web resources and services.